GORIZONT 18 [-]

Last updated on Nov. 19, 2019, 4:25 a.m. UTC

1 20107U 89052A   19321.81477043 -.00000250  00000-0  00000-0 0  9992
2 20107  14.7535 353.2635 0038394 294.7964 176.0516  0.99400298110528
UTC
Height (km)
Latitude
Longitude
Inclination
Orbital Period
UTC large
Height (km)
Speed (km/s)
/
Latitude / Longitude
Inclination (degrees)
Orbital Period (minutes)
Azimuth
Elevation
Range (km)
Doppler Factor
iOS Compass Heading
iOS Angle

Next 30 passes for location: Hong Kong

Rise time Rise Azimuth (degrees) Set time Set Azimuth (degrees) Duration Max altitude (degrees)

No matching passes for this satellites